Location: Newark
(48.2308°N, 120.8549°W)
Time: 07:34:48
(UTC+00:00)

Tiangong - Pass Details

Date: 25 June 2021
Orbit: 373 x 386 km, 41.5° (Epoch: 03 August)

Event Time Altitude Azimuth Distance (km) Brightness Sun altitude
Exits shadow 10:13:17 20° 172° (S) 958 2.6 -12.9°
Maximum altitude 10:13:25 20° 168° (SSE) 956 2.6 -12.9°
Drops below altitude 10° 10:15:47 10° 119° (ESE) 1,391 3.9 -12.7°
Sets 10:18:12 0° 102° (ESE) 2,248 5.2 -12.5°
